Location: Albert Place
(40.7505°N, 111.9230°W)
Time: 13:11:10
(UTC+00:00)

Cosmos 2333 Rocket - Pass Details

Date: 13 December 2025
Orbit: 838 x 865 km, 70.8° (Epoch: 17 January)

Event Time Altitude Azimuth Distance (km) Brightness Sun altitude
Exits shadow 12:07:26 37° 8° (N) 1,312 3.1 -28.7°
Maximum altitude 12:09:23 53° 62° (ENE) 1,045 2.8 -28.3°
Drops below altitude 10° 12:14:58 10° 139° (SE) 2,483 5.2 -27.2°
Sets 12:17:28 0° 144° (SE) 3,411 6.0 -26.8°
